Вернуться в каталог

STARLINK-32669

АктивенСвязьVLEO
NORAD 62213·PAYLOAD·🇺🇸 United States

Запущен Dec 4, 2024 с Cape Canaveral Space Force Station

Loading…

Ближайшие Пролёты (ближайшие 24 часа)

TLE

СвежийSource: CelesTrak SupGP

Эпоха: Sep 15, 2026, 03:13 UTC

1 62213C 24229X   26258.13451389 -.00002438  00000+0 -88297-4 0  2584
2 62213  42.9998 281.1261 0001381 263.4772   1.9581 15.27582047    18

Отслеживайте STARLINK-32669 в реальном времени с AllMySat

Download on the App Store